LRTC Weather Reports


Display with metric or nautical units.
time (UTC)temp
F
wind
direction
speed
MPH
gust
MPH
rain 1hr
in
rain 24hr
in
rain mn
in
humidity
%
barometer
mb
20260503001844 34 1.0 0.0 0.00 0.00 0.00 100 1022.0
20260503000344 34 1.0 0.0 0.00 0.00 0.00 100 1022.0
20260502234844 37 2.0 0.0 0.00 0.00 0.00 81 1022.0
20260502233344 37 2.0 0.0 0.00 0.00 0.00 81 1022.0
20260502231845 34 1.0 0.0 0.00 0.00 0.00 93 1022.0
20260502230345 34 1.0 0.0 0.00 0.00 0.00 93 1022.0
20260502223344 36 340 3.0 0.0 0.00 0.00 0.00 81 1022.0
20260502221844 36 310 3.0 0.0 0.00 0.00 0.00 87 1022.0
20260502220344 36 310 3.0 0.0 0.00 0.00 0.00 87 1022.0
20260502214844 36 310 5.0 0.0 0.00 0.00 0.00 87 1022.0
20260502213345 36 310 5.0 0.0 0.00 0.00 0.00 87 1022.0
20260502211844 41 330 6.0 0.0 0.00 0.00 0.00 76 1022.0
20260502210344 41 330 6.0 0.0 0.00 0.00 0.00 76 1022.0
20260502203344 43 360 3.0 0.0 0.00 0.00 0.00 71 1022.0
20260502201845 43 360 5.0 0.0 0.00 0.00 0.00 71 1023.0
20260502200344 43 360 5.0 0.0 0.00 0.00 0.00 71 1023.0
20260502194844 41 10 5.0 0.0 0.00 0.00 0.00 70 1023.0
20260502193345 41 10 5.0 0.0 0.00 0.00 0.00 70 1023.0
20260502191844 41 20 5.0 0.0 0.00 0.00 0.00 70 1023.0
20260502190344 41 20 5.0 0.0 0.00 0.00 0.00 70 1023.0
20260502184844 41 20 5.0 0.0 0.00 0.00 0.00 70 1022.0
20260502183344 41 20 5.0 0.0 0.00 0.00 0.00 70 1022.0
20260502181845 43 50 5.0 0.0 0.00 0.00 0.00 71 1022.0
20260502180344 43 50 5.0 0.0 0.00 0.00 0.00 71 1022.0
20260502170344 46 80 3.0 0.0 0.00 0.00 0.00 71 1022.0
20260502163344 48 90 6.0 0.0 0.00 0.00 0.00 66 1022.0
20260502161844 50 90 7.0 0.0 0.00 0.00 0.00 62 1022.0
20260502160345 50 90 7.0 0.0 0.00 0.00 0.00 62 1022.0
20260502151844 52 70 9.0 0.0 0.00 0.00 0.00 58 1022.0
20260502150344 52 70 9.0 0.0 0.00 0.00 0.00 58 1022.0
20260502130345 54 20 13.0 0.0 0.00 0.00 0.00 47 1022.0
20260502123344 54 90 11.0 0.0 0.00 0.00 0.00 58 1022.0
20260502121844 48 70 15.0 0.0 0.00 0.00 0.00 71 1022.0
20260502120352 48 70 15.0 0.0 0.00 0.00 0.00 71 1022.0
20260502113344 52 8.0 0.0 0.00 0.00 0.00 58 1022.0
20260502111844 55 70 11.0 0.0 0.00 0.00 0.00 51 1022.0
20260502110344 55 70 11.0 0.0 0.00 0.00 0.00 51 1022.0
20260502104844 54 50 11.0 0.0 0.00 0.00 0.00 51 1022.0
20260502103345 54 50 11.0 0.0 0.00 0.00 0.00 51 1022.0
20260502101841 54 40 17.0 0.0 0.00 0.00 0.00 47 1022.0
20260502100344 54 40 17.0 0.0 0.00 0.00 0.00 47 1022.0
20260502090344 55 340 11.0 0.0 0.00 0.00 0.00 55 1022.0
20260502070345 50 350 10.0 0.0 0.00 0.00 0.00 62 1022.0
20260502064844 50 330 5.0 0.0 0.00 0.00 0.00 67 1022.0
20260502063344 50 330 5.0 0.0 0.00 0.00 0.00 67 1022.0
20260502061844 46 2.0 0.0 0.00 0.00 0.00 66 1022.0
20260502060345 46 2.0 0.0 0.00 0.00 0.00 66 1022.0
20260502054844 45 240 1.0 0.0 0.00 0.00 0.00 76 1022.0
20260502053345 45 240 1.0 0.0 0.00 0.00 0.00 76 1022.0
20260502051844 43 2.0 0.0 0.00 0.00 0.00 76 1022.0
20260502050344 43 2.0 0.0 0.00 0.00 0.00 76 1022.0
20260502044844 41 260 3.0 0.0 0.00 0.00 0.00 76 1022.0
20260502043344 41 260 3.0 0.0 0.00 0.00 0.00 76 1022.0
20260502041844 39 2.0 0.0 0.00 0.00 0.00 81 1022.0
20260502040344 39 2.0 0.0 0.00 0.00 0.00 81 1022.0
20260502035005 39 0 0.0 0.0 0.00 0.00 0.00 75 1022.0
20260502033344 39 0 0.0 0.0 0.00 0.00 0.00 75 1022.0
20260502031844 39 330 3.0 0.0 0.00 0.00 0.00 81 1022.0
20260502030344 39 330 3.0 0.0 0.00 0.00 0.00 81 1022.0
20260502024844 41 290 3.0 0.0 0.00 0.00 0.00 70 1022.0
20260502023344 41 290 3.0 0.0 0.00 0.00 0.00 70 1022.0
20260502021845 39 350 6.0 0.0 0.00 0.00 0.00 75 1022.0
20260502020344 39 350 6.0 0.0 0.00 0.00 0.00 75 1022.0
20260502014845 37 350 5.0 0.0 0.00 0.00 0.00 81 1023.0
20260502013344 37 350 5.0 0.0 0.00 0.00 0.00 81 1023.0
20260502011845 37 20 2.0 0.0 0.00 0.00 0.00 81 1023.0
20260502010344 37 20 2.0 0.0 0.00 0.00 0.00 81 1023.0
20260502003344 37 0 0.0 0.0 0.00 0.00 0.00 81 1023.0